User: anonymous   Login
Location: Caltech
(34.1382°N, 118.1253°W)
Time: 13:45:31
(UTC-07:00)
Language:

JAS-2 - Orbit

View from above orbital plane
View from above orbital plane
View from above satellite
View from above satellite

Ground track
Ground track

The orbit data is extracted from the following two-line orbital elements,

1 24278U 96046B   15090.51873255  .00000007  00000-0  45990-4 0  9997
2 24278 098.5323 069.8450 0349359 272.2177 202.3196 13.53048249919526
Epoch (UTC): 31 March 2015 12:26:58
Eccentricity: 0.0349359
inclination: 98.5323°
perigee height: 801 km
apogee height: 1321 km
right ascension of ascending node: 69.8450°
argument of perigee: 272.2177°
revolutions per day: 13.53048249
mean anomaly at epoch: 202.3196°
orbit number at epoch: 91952

The dashed part of the orbit path shows where the satellite is in the earth's shadow,  

DLR